TimeEDT,TemperatureF,Dew PointF,Humidity,Sea Level PressureIn,VisibilityMPH,Wind Direction,Wind SpeedMPH,Gust SpeedMPH,PrecipitationIn,Events,Conditions,WindDirDegrees,DateUTC
12:35 AM,55.4,50.0,82,30.00,10.0,ENE,5.8,-,N/A,,Overcast,60,2013-10-04 04:35:00
12:55 AM,55.4,50.0,82,29.99,10.0,East,8.1,-,N/A,,Overcast,80,2013-10-04 04:55:00
1:15 AM,55.4,50.0,82,29.99,10.0,ENE,8.1,-,N/A,,Overcast,70,2013-10-04 05:15:00
1:35 AM,55.4,50.0,82,29.98,10.0,ENE,8.1,-,N/A,,Overcast,60,2013-10-04 05:35:00
1:55 AM,55.4,50.0,82,29.99,10.0,NE,10.4,-,N/A,,Overcast,50,2013-10-04 05:55:00
2:15 AM,55.4,51.8,88,29.99,10.0,ENE,8.1,-,N/A,,Mostly Cloudy,60,2013-10-04 06:15:00
2:35 AM,55.4,51.8,88,30.00,10.0,East,5.8,-,N/A,,Overcast,80,2013-10-04 06:35:00
2:55 AM,55.4,51.8,88,29.99,10.0,East,6.9,-,N/A,,Overcast,80,2013-10-04 06:55:00
3:15 AM,55.4,51.8,88,29.99,10.0,ENE,8.1,-,N/A,,Overcast,70,2013-10-04 07:15:00
3:35 AM,55.4,51.8,88,30.00,10.0,ENE,6.9,-,N/A,,Overcast,60,2013-10-04 07:35:00
3:55 AM,55.4,51.8,88,30.01,10.0,NE,6.9,-,N/A,,Overcast,50,2013-10-04 07:55:00
4:15 AM,55.4,51.8,88,30.01,10.0,NE,6.9,-,N/A,,Overcast,40,2013-10-04 08:15:00
4:35 AM,55.4,51.8,88,30.01,10.0,NNE,6.9,-,N/A,,Overcast,30,2013-10-04 08:35:00
4:55 AM,53.6,51.8,94,30.01,10.0,NE,11.5,-,N/A,,Overcast,50,2013-10-04 08:55:00
5:15 AM,55.4,51.8,88,30.01,10.0,NE,10.4,-,N/A,,Overcast,40,2013-10-04 09:15:00
5:35 AM,53.6,51.8,94,30.02,10.0,NE,10.4,-,N/A,,Overcast,40,2013-10-04 09:35:00
5:55 AM,53.6,51.8,94,30.02,10.0,NNE,8.1,-,0.03,,Overcast,30,2013-10-04 09:55:00
6:15 AM,53.6,51.8,94,30.02,10.0,NE,10.4,-,N/A,,Overcast,40,2013-10-04 10:15:00
6:35 AM,53.6,51.8,94,30.02,10.0,NE,10.4,-,N/A,,Overcast,50,2013-10-04 10:35:00
6:55 AM,53.6,51.8,94,30.03,10.0,ENE,9.2,-,N/A,,Overcast,70,2013-10-04 10:55:00
7:15 AM,53.6,51.8,94,30.03,10.0,NE,8.1,-,N/A,,Overcast,50,2013-10-04 11:15:00
7:35 AM,53.6,51.8,94,30.03,10.0,NE,8.1,-,N/A,,Overcast,50,2013-10-04 11:35:00
7:55 AM,53.6,51.8,94,30.03,10.0,NE,10.4,-,N/A,,Overcast,50,2013-10-04 11:55:00
8:15 AM,53.6,51.8,94,30.05,10.0,ENE,9.2,-,N/A,,Overcast,70,2013-10-04 12:15:00
8:35 AM,53.6,51.8,94,30.05,10.0,ENE,10.4,-,N/A,,Overcast,60,2013-10-04 12:35:00
8:55 AM,55.4,51.8,88,30.06,10.0,ENE,9.2,-,N/A,,Overcast,70,2013-10-04 12:55:00
9:15 AM,55.4,51.8,88,30.07,10.0,ENE,10.4,-,N/A,,Overcast,60,2013-10-04 13:15:00
9:35 AM,55.4,51.8,88,30.07,10.0,ENE,10.4,-,N/A,,Overcast,60,2013-10-04 13:35:00
9:55 AM,55.4,50.0,82,30.06,10.0,ENE,13.8,-,N/A,,Overcast,60,2013-10-04 13:55:00
10:15 AM,55.4,50.0,82,30.07,10.0,ENE,10.4,17.3,N/A,,Overcast,60,2013-10-04 14:15:00
10:35 AM,55.4,50.0,82,30.06,10.0,ENE,15.0,-,N/A,,Overcast,70,2013-10-04 14:35:00
10:55 AM,57.2,50.0,77,30.08,10.0,ENE,13.8,-,N/A,,Overcast,70,2013-10-04 14:55:00
11:15 AM,57.2,50.0,77,30.08,10.0,ENE,11.5,16.1,N/A,,Overcast,60,2013-10-04 15:15:00
11:35 AM,57.2,50.0,77,30.07,10.0,ENE,18.4,23.0,N/A,,Overcast,70,2013-10-04 15:35:00
11:55 AM,59.0,48.2,67,30.07,10.0,ENE,16.1,21.9,N/A,,Overcast,70,2013-10-04 15:55:00
12:15 PM,59.0,50.0,72,30.07,10.0,East,13.8,21.9,N/A,,Scattered Clouds,90,2013-10-04 16:15:00
12:35 PM,59.0,48.2,67,30.09,10.0,East,16.1,20.7,N/A,,Mostly Cloudy,80,2013-10-04 16:35:00
12:55 PM,59.0,50.0,72,30.10,10.0,East,8.1,-,N/A,,Overcast,90,2013-10-04 16:55:00
1:15 PM,60.8,50.0,68,30.11,10.0,East,6.9,-,N/A,,Overcast,80,2013-10-04 17:15:00
1:35 PM,59.0,50.0,72,30.11,10.0,NE,10.4,-,N/A,,Overcast,50,2013-10-04 17:35:00
1:55 PM,59.0,50.0,72,30.10,10.0,NE,11.5,-,N/A,,Overcast,50,2013-10-04 17:55:00
2:15 PM,59.0,50.0,72,30.10,10.0,NE,11.5,-,N/A,,Overcast,50,2013-10-04 18:15:00
2:35 PM,60.8,50.0,68,30.09,10.0,ENE,13.8,-,N/A,,Overcast,60,2013-10-04 18:35:00
2:55 PM,60.8,50.0,68,30.09,10.0,NE,11.5,-,N/A,,Overcast,50,2013-10-04 18:55:00
3:15 PM,60.8,50.0,68,30.10,10.0,NE,9.2,-,N/A,,Overcast,50,2013-10-04 19:15:00
3:35 PM,60.8,48.2,63,30.10,10.0,ENE,15.0,18.4,N/A,,Overcast,70,2013-10-04 19:35:00
3:55 PM,60.8,50.0,68,30.10,10.0,ENE,16.1,20.7,N/A,,Overcast,70,2013-10-04 19:55:00
4:15 PM,60.8,48.2,63,30.10,10.0,East,12.7,-,N/A,,Overcast,80,2013-10-04 20:15:00
4:35 PM,60.8,50.0,68,30.10,10.0,East,9.2,-,N/A,,Overcast,80,2013-10-04 20:35:00
4:55 PM,60.8,50.0,68,30.10,10.0,East,9.2,-,N/A,,Overcast,80,2013-10-04 20:55:00
5:15 PM,60.8,50.0,68,30.09,10.0,East,8.1,-,N/A,,Overcast,80,2013-10-04 21:15:00
5:35 PM,60.8,51.8,72,30.10,10.0,ENE,6.9,-,N/A,,Overcast,70,2013-10-04 21:35:00
5:55 PM,60.8,51.8,72,30.09,10.0,NE,5.8,-,N/A,,Overcast,50,2013-10-04 21:55:00
6:15 PM,60.8,51.8,72,30.11,10.0,ESE,3.5,-,N/A,,Overcast,110,2013-10-04 22:15:00
6:35 PM,59.0,51.8,77,30.11,10.0,Calm,Calm,-,N/A,,Overcast,0,2013-10-04 22:35:00
6:55 PM,59.0,51.8,77,30.11,10.0,ENE,4.6,-,N/A,,Overcast,60,2013-10-04 22:55:00
7:15 PM,59.0,51.8,77,30.12,10.0,ENE,3.5,-,N/A,,Overcast,70,2013-10-04 23:15:00
7:35 PM,57.2,51.8,82,30.12,10.0,ENE,3.5,-,N/A,,Overcast,60,2013-10-04 23:35:00
7:55 PM,57.2,51.8,82,30.13,10.0,NE,4.6,-,N/A,,Overcast,50,2013-10-04 23:55:00
8:15 PM,57.2,51.8,82,30.13,10.0,NE,8.1,-,N/A,,Overcast,50,2013-10-05 00:15:00
8:35 PM,57.2,50.0,77,30.12,10.0,NE,8.1,-,N/A,,Overcast,50,2013-10-05 00:35:00
8:55 PM,57.2,48.2,72,30.13,10.0,ENE,9.2,-,N/A,,Overcast,60,2013-10-05 00:55:00
9:15 PM,57.2,48.2,72,30.13,10.0,ENE,10.4,-,N/A,,Overcast,60,2013-10-05 01:15:00
9:35 PM,57.2,48.2,72,30.13,10.0,ENE,10.4,-,N/A,,Overcast,60,2013-10-05 01:35:00
9:55 PM,57.2,46.4,67,30.14,10.0,NE,11.5,-,N/A,,Overcast,50,2013-10-05 01:55:00
10:15 PM,57.2,46.4,67,30.13,10.0,NE,11.5,-,N/A,,Overcast,50,2013-10-05 02:15:00
10:35 PM,57.2,46.4,67,30.14,10.0,NE,10.4,-,N/A,,Overcast,50,2013-10-05 02:35:00
10:55 PM,55.4,46.4,72,30.14,10.0,NE,11.5,-,N/A,,Overcast,50,2013-10-05 02:55:00
11:15 PM,55.4,46.4,72,30.15,10.0,NE,9.2,-,N/A,,Overcast,50,2013-10-05 03:15:00
11:35 PM,55.4,46.4,72,30.15,10.0,ENE,8.1,-,N/A,,Overcast,60,2013-10-05 03:35:00
11:55 PM,55.4,46.4,72,30.16,10.0,ENE,8.1,-,N/A,,Overcast,60,2013-10-05 03:55:00